This is the latest recevied weather packets stored in our database for station/object K4VEB. If no packets are shown the sender has not sent any weather packets the latest 10 day(s).
| Time | Temp. | Humidity | Pressure | Rain* | Wind** | Luminosity | Snow |
|---|---|---|---|---|---|---|---|
| 1777998943 | 27.22° C | 54% | 1016.8 hPa | 0 mm | - | 294 W/m² | - |
| 1777998640 | 28.33° C | 52% | 1016.7 hPa | 0 mm | - | 270 W/m² | - |
| 1777998338 | 28.33° C | 51% | 1016.9 hPa | 0 mm | - | 968 W/m² | - |
| 1777998035 | 28.33° C | 51% | 1016.8 hPa | 0 mm | - | 923 W/m² | - |
| 1777997732 | 27.78° C | 50% | 1016.7 hPa | 0 mm | - | 885 W/m² | - |
| 1777997429 | 27.22° C | 53% | 1016.9 hPa | 0 mm | - | 881 W/m² | - |
| 1777997127 | 27.22° C | 54% | 1016.6 hPa | 0 mm | - | 361 W/m² | - |
| 1777996824 | 27.78° C | 54% | 1016.9 hPa | 0 mm | - | 787 W/m² | - |
| 1777996520 | 27.22° C | 52% | 1016.7 hPa | 0 mm | - | 787 W/m² | - |
| 1777996217 | 27.78° C | 55% | 1016.6 hPa | 0 mm | - | 477 W/m² | - |
| 1777995913 | 27.78° C | 55% | 1016.7 hPa | 0 mm | - | 755 W/m² | - |
| 1777995609 | 27.78° C | 54% | 1016.6 hPa | 0 mm | - | 718 W/m² | - |
| 1777995307 | 27.22° C | 57% | 1016.7 hPa | 0 mm | - | 509 W/m² | - |
| 1777995003 | 26.67° C | 58% | 1016.8 hPa | 0 mm | - | 839 W/m² | - |
| 1777994700 | 26.67° C | 58% | 1016.8 hPa | 0 mm | - | 299 W/m² | - |
| 1777994396 | 27.78° C | 56% | 1016.6 hPa | 0 mm | - | 655 W/m² | - |
| 1777994091 | 27.78° C | 58% | 1016.8 hPa | 0 mm | - | 706 W/m² | - |
| 1777993789 | 26.67° C | 60% | 1016.6 hPa | 0 mm | - | 597 W/m² | - |
| 1777993486 | 26.67° C | 58% | 1016.7 hPa | 0 mm | - | 641 W/m² | - |
| 1777993185 | 26.67° C | 61% | 1016.6 hPa | 0 mm | - | 668 W/m² | - |
| 1777992883 | 26.11° C | 62% | 1016.6 hPa | 0 mm | - | 673 W/m² | - |
| 1777992581 | 26.11° C | 62% | 1016.7 hPa | 0 mm | - | 643 W/m² | - |
| 1777992279 | 26.11° C | 64% | 1016.7 hPa | 0 mm | - | 618 W/m² | - |
| 1777991976 | 25.56° C | 65% | 1016.5 hPa | 0 mm | - | 607 W/m² | - |
| 1777991674 | 26.11° C | 64% | 1016.6 hPa | 0 mm | - | 307 W/m² | - |
* Rain latest hour (hover to see other rain measurements)
** Current wind speed in m/s (hover to see current wind gust speed)